Flag for Austria Weather past 2 weeks in Gmünd, Lower Austria, Austria

Now
41 °F

Quite cool.


Feels Like: 38 °F
Forecast: 31 / 38 °F
Wind: 5 mph from West

Location: Retz

Current Time: Mar 27, 2015 at 8:46:52 AM

Latest Report: Mar 27, 2015 at 8:00 AM


Visibility: N/A

Pressure: 29.92 "Hg

Humidity: 87%

Dew point: 38 °F

Location of GmündLocation

Historic Weather in Gmünd — Graph

°F

Gmünd temperature yesterday

Maximum temperature yesterday: 60 °F (at 3:00 PM)
Minimum temperature yesterday: 46 °F (at 6:00 AM)
Average temperature yesterday: 52 °F

Past Weeks' High & Low Weather Summary

 TemperatureHumidityPressure
High60 °F (Mar 26, 3:00 PM)99% (Mar 15, 3:00 AM)30.53 "Hg (Mar 15, 3:00 AM)
Low30 °F (Mar 23, 6:00 AM)37% (Mar 21, 4:00 PM)29.70 "Hg (Mar 26, 4:00 AM)
Average44 °F70%30.15 "Hg
* Reported Mar 12 7:00 AM — Mar 27 7:00 AM, Gmünd, Weather by CustomWeather, © 2015

Note: Actual official high and low records may vary slightly from our data, if they occured in-between our weather recording intervals... More about our weather records

Advertising

Gmünd weather history for previous 24 hours

 ConditionsComfort  
Time TempWeatherWind HumidityBarometerVisibility
7:00 AM
Fri, Mar 27
41 °FQuite cool.5 mph88%29.89 "HgN/A
6:00 AM42 °FQuite cool.7 mph87%29.86 "HgN/A
5:00 AM43 °FQuite cool.5 mph90%29.84 "HgN/A
3:00 AM45 °FFog.8 mph92%29.80 "HgN/A
2:00 AM46 °FFog.5 mph93%29.79 "HgN/A
1:00 AM47 °FFog.6 mph90%29.78 "HgN/A
12:00 AM49 °FCool.3 mph85%29.78 "HgN/A
11:00 PM
Thu, Mar 26
50 °FCool.8 mph81%29.76 "HgN/A
10:00 PM51 °FCool.7 mph80%29.75 "HgN/A
9:00 PM52 °FCool.6 mph81%29.75 "HgN/A
8:00 PM54 °FCool.2 mph78%29.73 "HgN/A
7:00 PM54 °FOvercast.2 mph78%29.72 "Hg3 mi
6:00 PM56 °FCool.3 mph72%29.72 "HgN/A
5:00 PM57 °FCool.5 mph68%29.71 "HgN/A
4:00 PM58 °FCool.5 mph65%29.71 "HgN/A
3:00 PM60 °FCool.5 mph64%29.71 "HgN/A
2:00 PM58 °FCool.3 mph76%29.72 "HgN/A
1:00 PM56 °FPartly sunny.5 mph82%29.73 "Hg9 mi
12:00 PM54 °FCool.3 mph83%29.74 "HgN/A
11:00 AM52 °FCool.2 mph89%29.75 "HgN/A
10:00 AM50 °FCool.2 mph92%29.76 "HgN/A
9:00 AM48 °FCool.1 mph92%29.74 "HgN/A
8:00 AM47 °FCool.2 mph95%29.73 "HgN/A
Weather by CustomWeather, © 2015

See weather overviewHow to use our weather pages